Weather History for Cross City, FL

Change the Weather History Date:

Thursday, March 22, 2012

  Actual Average Record
Temperature  
Mean Temperature 74 °F 63 °F  
Max Temperature 84 °F 77 °F 84 °F (2011)
Min Temperature 64 °F 50 °F 39 °F (1998)
Degree Days  
Heating Degree Days 0 3  
Month to date heating degree days 109  
Since 1 July heating degree days 1229  
Cooling Degree Days 9 2  
Month to date cooling degree days 26  
Year to date cooling degree days 53  
Growing Degree Days 24 (Base 50)    
Moisture  
Dew Point 64 °F    
Average Humidity 75    
Maximum Humidity 93    
Minimum Humidity 49    
Precipitation  
Precipitation 0.00 in 0.14 in 0.03 in (2005)
Month to date precipitation 2.99  
Year to date precipitation 10.30  
Sea Level Pressure  
Sea Level Pressure 30.13 in    
Wind  
Wind Speed 3 mph (South)    
Max Wind Speed 13 mph    
Max Gust Speed -    
T = Trace of Precipitation, MM = Missing Value Source: NWS Daily Summary

Daily Weather History Graph

Daily Weather History Graph

Search for Another Location

Airport:

Trip Planner

Search our weather history database for the weather conditions in past years. The results will help you decide how hot, cold, wet, or windy it might be!

Date:

Astronomy

Mar. 22, 2012 Rise Set
Actual Time 7:33 AM EDT 7:45 PM EDT
Civil Twilight 7:09 AM EDT 8:09 PM EDT
Nautical Twilight 6:41 AM EDT 8:36 PM EDT
Astronomical Twilight 6:13 AM EDT 9:05 PM EDT
Moon 7:15 AM EDT (3/22) 8:03 PM EDT (3/22)
Length of Visible Light 12h 59m
Length of Day
12h 12m
Waxing Crescent, 0% of the Moon is Illuminated
Mar 22
Waxing Crescent
Mar 30
First Quarter
Apr 6
Full
Apr 13
Last Quarter
Apr 21
New

Hourly Weather History & Observations

Time (EDT) Temp. Heat Index Dew Point Humidity Pressure Visibility Wind Dir Wind Speed Gust Speed Precip Events Conditions
12:53 AM 69.1 °F - 66.0 °F 90% 30.16 in - Calm Calm - N/A   Unknown
1:53 AM 68.0 °F - 64.9 °F 90% 30.15 in - East 3.5 mph - N/A   Unknown
2:53 AM 66.9 °F - 64.0 °F 90% 30.15 in - Calm Calm - N/A   Unknown
3:53 AM 66.9 °F - 64.0 °F 90% 30.14 in - Calm Calm - N/A   Unknown
4:53 AM 66.9 °F - 64.0 °F 90% 30.12 in - Variable 3.5 mph - N/A   Unknown
5:53 AM 66.9 °F - 64.0 °F 90% 30.11 in - Calm Calm - N/A   Unknown
6:53 AM 66.9 °F - 64.9 °F 93% 30.11 in - Variable 5.8 mph - N/A   Unknown
7:53 AM 66.9 °F - 64.0 °F 90% 30.13 in - SE 3.5 mph - N/A   Unknown
8:53 AM 69.1 °F - 66.0 °F 90% 30.16 in - SE 4.6 mph - N/A   Unknown
9:53 AM 73.0 °F - 66.9 °F 81% 30.17 in - SE 8.1 mph - N/A   Unknown
10:53 AM 75.9 °F - 66.0 °F 71% 30.19 in - SSE 9.2 mph - N/A   Unknown
11:53 AM 80.1 °F 82.1 °F 66.0 °F 62% 30.19 in - South 8.1 mph - N/A   Unknown
12:53 PM 82.0 °F 83.8 °F 64.9 °F 56% 30.17 in - East 8.1 mph - N/A   Unknown
1:53 PM 82.9 °F 84.4 °F 64.0 °F 53% 30.14 in - South 9.2 mph - N/A   Unknown
2:53 PM 82.0 °F 83.1 °F 63.0 °F 52% 30.11 in - Calm Calm - N/A   Unknown
3:53 PM 81.0 °F 82.2 °F 63.0 °F 54% 30.09 in - SW 8.1 mph - N/A   Unknown
4:53 PM 82.0 °F 82.7 °F 61.0 °F 49% 30.08 in - SW 12.7 mph - N/A   Unknown
5:53 PM 82.9 °F 83.7 °F 62.1 °F 49% 30.08 in - SW 9.2 mph - N/A   Unknown
6:53 PM 80.1 °F 81.5 °F 63.0 °F 56% 30.09 in - West 8.1 mph - N/A   Unknown
7:53 PM 75.9 °F - 64.0 °F 67% 30.09 in - West 4.6 mph - N/A   Unknown
8:53 PM 72.0 °F - 63.0 °F 73% 30.10 in - Calm Calm - N/A   Unknown
9:53 PM 68.0 °F - 63.0 °F 84% 30.12 in - Calm Calm - N/A   Unknown
10:53 PM 68.0 °F - 64.0 °F 87% 30.13 in - Calm Calm - N/A   Unknown
11:53 PM 64.9 °F - 62.1 °F 90% 30.13 in - Calm Calm - N/A   Unknown